TimePST,TemperatureF,Dew PointF,Humidity,Sea Level PressureIn,VisibilityMPH,Wind Direction,Wind SpeedMPH,Gust SpeedMPH,PrecipitationIn,Events,Conditions,WindDirDegrees,DateUTC
12:53 AM,46.0,27.0,47,29.98,10.0,Calm,Calm,-,N/A,,Clear,0,2013-02-21 08:53:00
1:53 AM,44.1,27.0,51,29.99,10.0,North,4.6,-,N/A,,Clear,360,2013-02-21 09:53:00
2:53 AM,44.1,28.9,55,29.97,10.0,NNW,4.6,-,N/A,,Clear,330,2013-02-21 10:53:00
3:53 AM,43.0,32.0,65,29.98,10.0,North,3.5,-,N/A,,Clear,350,2013-02-21 11:53:00
4:53 AM,43.0,32.0,65,29.97,10.0,Calm,Calm,-,N/A,,Clear,0,2013-02-21 12:53:00
5:53 AM,43.0,32.0,65,29.99,10.0,Calm,Calm,-,N/A,,Clear,0,2013-02-21 13:53:00
6:53 AM,42.1,32.0,67,30.00,10.0,Calm,Calm,-,N/A,,Partly Cloudy,0,2013-02-21 14:53:00
7:53 AM,46.9,35.1,63,30.01,10.0,Calm,Calm,-,N/A,,Clear,0,2013-02-21 15:53:00
8:53 AM,51.1,36.0,56,30.02,10.0,Calm,Calm,-,N/A,,Partly Cloudy,0,2013-02-21 16:53:00
9:53 AM,54.0,37.0,53,30.02,10.0,SSE,3.5,-,N/A,,Partly Cloudy,150,2013-02-21 17:53:00
10:53 AM,55.9,34.0,44,30.00,10.0,Calm,Calm,-,N/A,,Partly Cloudy,0,2013-02-21 18:53:00
11:53 AM,57.9,32.0,37,29.98,10.0,ESE,3.5,-,N/A,,Clear,120,2013-02-21 19:53:00
12:53 PM,60.1,30.0,32,29.96,10.0,Calm,Calm,-,N/A,,Partly Cloudy,0,2013-02-21 20:53:00
1:53 PM,61.0,28.9,30,29.95,10.0,Variable,4.6,-,N/A,,Mostly Cloudy,0,2013-02-21 21:53:00
2:53 PM,63.0,26.1,25,29.94,10.0,Calm,Calm,-,N/A,,Clear,0,2013-02-21 22:53:00
3:09 PM,62.6,26.6,26,29.96,10.0,Variable,4.6,19.6,N/A,,Partly Cloudy,0,2013-02-21 23:09:00
3:10 PM,62.6,26.6,26,29.96,10.0,Variable,3.5,-,N/A,,Partly Cloudy,0,2013-02-21 23:10:00
3:20 PM,62.6,24.8,24,29.96,10.0,ESE,6.9,-,N/A,,Partly Cloudy,110,2013-02-21 23:20:00
3:53 PM,61.0,35.1,38,29.94,10.0,SSW,8.1,-,N/A,,Partly Cloudy,200,2013-02-21 23:53:00
4:53 PM,61.0,33.1,35,29.95,10.0,Calm,Calm,-,N/A,,Clear,0,2013-02-22 00:53:00
5:53 PM,57.9,35.1,42,29.98,10.0,South,4.6,-,N/A,,Clear,170,2013-02-22 01:53:00
6:53 PM,55.9,35.1,45,30.01,10.0,SW,13.8,-,N/A,,Clear,230,2013-02-22 02:53:00
7:12 PM,55.4,35.6,47,30.03,10.0,WSW,9.2,-,N/A,,Clear,250,2013-02-22 03:12:00
7:53 PM,55.0,30.9,40,30.04,10.0,NNW,9.2,-,N/A,,Clear,340,2013-02-22 03:53:00
8:53 PM,54.0,30.0,40,30.05,10.0,North,9.2,-,N/A,,Clear,350,2013-02-22 04:53:00
9:53 PM,53.1,30.0,41,30.06,10.0,NW,8.1,-,N/A,,Clear,310,2013-02-22 05:53:00
10:53 PM,51.1,28.0,41,30.06,10.0,North,12.7,-,N/A,,Clear,360,2013-02-22 06:53:00
11:53 PM,51.1,28.0,41,30.06,10.0,NW,8.1,-,N/A,,Clear,320,2013-02-22 07:53:00